Location: Hlohovi?ky
(49.8934°N, 13.6739°E)
Time: 05:04:08
(UTC+00:00)

Cosmos 2237 Rocket - Pass Details

Date: 19 May 2025
Orbit: 834 x 849 km, 71.0° (Epoch: 14 June)

Event Time Altitude Azimuth Distance (km) Brightness Sun altitude
Rises 23:41:13 0° 333° (NNW) 3,400 6.2 -19.6°
Reaches altitude 10° 23:43:57 10° 344° (NNW) 2,464 5.6 -19.5°
Maximum altitude 23:48:57 31° 46° (NE) 1,434 3.9 -19.3°
Drops below altitude 10° 23:53:57 10° 108° (ESE) 2,462 4.6 -19.2°
Sets 23:56:40 0° 119° (ESE) 3,396 5.2 -19.1°
